| time (UTC) | temp F | wind direction | speed knots | gust knots | rain 1hr in | rain 24hr in | rain mn in | humidity % | barometer mb |
| 20260905140303 | 73 | 78 | 2.6 | 6.1 | 0.00 | 0.00 | 0.00 | 100 | 1014.5 |
| 20260905135803 | 72 | 80 | 2.6 | 5.2 | 0.00 | 0.00 | 0.00 | 100 | 1014.4 |
| 20260905135306 | 72 | 71 | 4.3 | 7.8 | 0.00 | 0.00 | 0.00 | 100 | 1014.5 |
| 20260905134803 | 72 | 73 | 3.5 | 8.7 | 0.00 | 0.00 | 0.00 | 100 | 1014.4 |
| 20260905134303 | 72 | 97 | 4.3 | 7.8 | 0.00 | 0.00 | 0.00 | 100 | 1014.5 |
| 20260905133803 | 72 | 79 | 1.7 | 6.1 | 0.00 | 0.00 | 0.00 | 100 | 1014.3 |
| 20260905133303 | 71 | 71 | 2.6 | 7.0 | 0.00 | 0.00 | 0.00 | 100 | 1014.3 |
| 20260905132803 | 71 | 98 | 2.6 | 6.1 | 0.00 | 0.00 | 0.00 | 100 | 1014.4 |
| 20260905132305 | 71 | 45 | 2.6 | 7.8 | 0.00 | 0.00 | 0.00 | 100 | 1014.3 |
| 20260905131804 | 71 | 65 | 0.9 | 5.2 | 0.00 | 0.00 | 0.00 | 100 | 1014.1 |
| 20260905131303 | 71 | 66 | 1.7 | 5.2 | 0.00 | 0.00 | 0.00 | 100 | 1014.0 |
| 20260905130803 | 71 | 89 | 0.9 | 4.3 | 0.00 | 0.00 | 0.00 | 100 | 1013.8 |
| 20260905125803 | 70 | 65 | 4.3 | 8.7 | 0.00 | 0.00 | 0.00 | 100 | 1013.4 |
| 20260905125306 | 70 | 89 | 2.6 | 7.8 | 0.00 | 0.00 | 0.00 | 100 | 1013.5 |
| 20260905124803 | 70 | 68 | 2.6 | 7.0 | 0.00 | 0.00 | 0.00 | 100 | 1013.3 |
| 20260905124303 | 70 | 74 | 2.6 | 6.1 | 0.00 | 0.00 | 0.00 | 100 | 1013.2 |
| 20260905123803 | 70 | 89 | 1.7 | 5.2 | 0.00 | 0.00 | 0.00 | 100 | 1013.1 |
| 20260905123303 | 70 | 36 | 1.7 | 7.0 | 0.00 | 0.00 | 0.00 | 100 | 1013.1 |
| 20260905122803 | 70 | 58 | 4.3 | 8.7 | 0.00 | 0.00 | 0.00 | 100 | 1013.1 |
| 20260905122306 | 70 | 78 | 1.7 | 6.1 | 0.00 | 0.00 | 0.00 | 100 | 1013.2 |
| 20260905121803 | 70 | 83 | 2.6 | 5.2 | 0.00 | 0.00 | 0.00 | 100 | 1013.2 |
| 20260905121303 | 70 | 76 | 2.6 | 7.0 | 0.00 | 0.00 | 0.00 | 100 | 1013.3 |
| 20260905120804 | 70 | 33 | 1.7 | 4.3 | 0.00 | 0.00 | 0.00 | 100 | 1013.2 |
| 20260905120304 | 70 | 84 | 0.9 | 5.2 | 0.00 | 0.00 | 0.00 | 100 | 1013.2 |
| 20260905115803 | 70 | 92 | 2.6 | 6.1 | 0.00 | 0.00 | 0.00 | 100 | 1013.0 |
| 20260905115306 | 70 | 80 | 2.6 | 6.1 | 0.00 | 0.00 | 0.00 | 100 | 1013.0 |
| 20260905114803 | 70 | 61 | 1.7 | 7.0 | 0.00 | 0.00 | 0.00 | 100 | 1012.9 |
| 20260905114303 | 70 | 47 | 2.6 | 6.1 | 0.00 | 0.00 | 0.00 | 100 | 1013.0 |
| 20260905113803 | 70 | 43 | 1.7 | 5.2 | 0.00 | 0.00 | 0.00 | 100 | 1013.0 |
| 20260905112803 | 70 | 73 | 2.6 | 4.3 | 0.00 | 0.00 | 0.00 | 100 | 1012.9 |
| 20260905112305 | 70 | 86 | 1.7 | 2.6 | 0.00 | 0.00 | 0.00 | 100 | 1012.9 |
| 20260905111303 | 70 | 58 | 0.9 | 2.6 | 0.00 | 0.00 | 0.00 | 100 | 1013.0 |
| 20260905105804 | 70 | 71 | 1.7 | 4.3 | 0.00 | 0.00 | 0.00 | 100 | 1013.0 |
| 20260905105306 | 70 | 84 | 2.6 | 5.2 | 0.00 | 0.00 | 0.00 | 100 | 1012.9 |
| 20260905104803 | 70 | 89 | 0.9 | 4.3 | 0.00 | 0.00 | 0.00 | 100 | 1012.9 |
| 20260905104303 | 70 | 90 | 1.7 | 4.3 | 0.00 | 0.00 | 0.00 | 100 | 1012.8 |
| 20260905103804 | 70 | 63 | 0.9 | 2.6 | 0.00 | 0.00 | 0.00 | 100 | 1012.7 |
| 20260905102306 | 70 | 57 | 1.7 | 4.3 | 0.00 | 0.00 | 0.00 | 100 | 1012.7 |
| 20260905101304 | 70 | 337 | 0.0 | 0.9 | 0.00 | 0.00 | 0.00 | 100 | 1012.9 |
| 20260905100803 | 70 | 338 | 0.9 | 2.6 | 0.00 | 0.00 | 0.00 | 100 | 1012.5 |
| 20260905100304 | 70 | 84 | 2.6 | 6.1 | 0.00 | 0.00 | 0.00 | 100 | 1012.1 |
| 20260905095803 | 70 | 65 | 0.9 | 2.6 | 0.00 | 0.00 | 0.00 | 100 | 1012.0 |
| 20260905095306 | 70 | 71 | 1.7 | 5.2 | 0.00 | 0.00 | 0.00 | 100 | 1011.9 |
| 20260905094803 | 69 | 82 | 0.0 | 1.7 | 0.00 | 0.00 | 0.00 | 100 | 1012.1 |
| 20260905094303 | 69 | 45 | 0.9 | 4.3 | 0.00 | 0.00 | 0.00 | 100 | 1012.1 |
| 20260905093802 | 69 | 79 | 1.7 | 6.1 | 0.00 | 0.00 | 0.00 | 100 | 1012.0 |
| 20260905093303 | 69 | 82 | 0.9 | 7.0 | 0.00 | 0.00 | 0.00 | 100 | 1011.9 |
| 20260905092803 | 69 | 51 | 0.9 | 2.6 | 0.00 | 0.00 | 0.00 | 100 | 1011.9 |
| 20260905092306 | 69 | 49 | 0.9 | 5.2 | 0.00 | 0.00 | 0.00 | 100 | 1011.9 |
| 20260905091803 | 69 | 87 | 3.5 | 6.1 | 0.00 | 0.00 | 0.00 | 100 | 1012.0 |
| 20260905090803 | 69 | 39 | 1.7 | 2.6 | 0.00 | 0.00 | 0.00 | 100 | 1012.3 |
| 20260905090303 | 69 | 38 | 1.7 | 2.6 | 0.00 | 0.00 | 0.00 | 100 | 1012.3 |
| 20260905085305 | 68 | 54 | 1.7 | 7.0 | 0.00 | 0.00 | 0.00 | 100 | 1012.4 |
| 20260905084803 | 68 | 78 | 1.7 | 2.6 | 0.00 | 0.00 | 0.00 | 100 | 1012.4 |
| 20260905083803 | 68 | 32 | 0.9 | 2.6 | 0.00 | 0.00 | 0.00 | 100 | 1012.6 |
| 20260905083303 | 68 | 38 | 0.0 | 0.9 | 0.00 | 0.00 | 0.00 | 100 | 1012.6 |
| 20260905082803 | 68 | 38 | 0.0 | 1.7 | 0.00 | 0.00 | 0.00 | 100 | 1012.6 |
| 20260905082306 | 68 | 38 | 0.0 | 0.0 | 0.00 | 0.00 | 0.00 | 100 | 1012.7 |
| 20260905081803 | 68 | 38 | 0.0 | 0.0 | 0.00 | 0.00 | 0.00 | 100 | 1012.6 |
| 20260905080804 | 68 | 28 | 0.0 | 0.0 | 0.00 | 0.00 | 0.00 | 100 | 1012.6 |
| 20260905075803 | 68 | 28 | 0.0 | 0.0 | 0.00 | 0.00 | 0.00 | 100 | 1012.6 |
| 20260905075306 | 68 | 29 | 0.0 | 1.7 | 0.00 | 0.00 | 0.00 | 100 | 1012.5 |
| 20260905074803 | 68 | 0 | 0.0 | 0.0 | 0.00 | 0.00 | 0.00 | 100 | 1012.5 |
| 20260905074303 | 68 | 0 | 0.0 | 0.9 | 0.00 | 0.00 | 0.00 | 100 | 1012.6 |
| 20260905073803 | 68 | 0 | 0.0 | 0.9 | 0.00 | 0.00 | 0.00 | 100 | 1012.6 |
| 20260905072803 | 69 | 311 | 1.7 | 2.6 | 0.00 | 0.00 | 0.00 | 100 | 1012.6 |
| 20260905071303 | 69 | 32 | 0.0 | 0.0 | 0.00 | 0.00 | 0.00 | 100 | 1012.4 |
| 20260905070804 | 69 | 37 | 0.0 | 0.0 | 0.00 | 0.00 | 0.00 | 100 | 1012.4 |
| 20260905070303 | 69 | 36 | 0.0 | 0.0 | 0.00 | 0.00 | 0.00 | 100 | 1012.3 |
| 20260905065803 | 69 | 25 | 0.0 | 0.0 | 0.00 | 0.00 | 0.00 | 100 | 1012.2 |
| 20260905065306 | 70 | 40 | 0.0 | 0.0 | 0.00 | 0.00 | 0.00 | 100 | 1012.1 |
| 20260905064803 | 70 | 28 | 0.0 | 0.9 | 0.00 | 0.00 | 0.00 | 100 | 1012.2 |
| 20260905064303 | 70 | 41 | 0.0 | 1.7 | 0.00 | 0.00 | 0.00 | 100 | 1012.2 |
| 20260905063804 | 70 | 24 | 0.0 | 1.7 | 0.00 | 0.00 | 0.00 | 100 | 1012.2 |
| 20260905063303 | 71 | 36 | 0.9 | 1.7 | 0.00 | 0.00 | 0.00 | 100 | 1012.2 |
| 20260905061803 | 71 | 37 | 0.0 | 0.0 | 0.00 | 0.00 | 0.00 | 100 | 1012.3 |
| 20260905060803 | 71 | 19 | 0.0 | 1.7 | 0.00 | 0.00 | 0.00 | 100 | 1012.3 |
| 20260905060303 | 71 | 19 | 0.0 | 1.7 | 0.00 | 0.00 | 0.00 | 100 | 1012.3 |
| 20260905055804 | 71 | 19 | 0.0 | 0.9 | 0.00 | 0.00 | 0.00 | 100 | 1012.3 |
| 20260905054303 | 71 | 19 | 0.9 | 2.6 | 0.00 | 0.00 | 0.00 | 100 | 1012.2 |
| 20260905053803 | 72 | 0 | 0.0 | 2.6 | 0.00 | 0.00 | 0.00 | 100 | 1012.2 |
| 20260905053303 | 72 | 0 | 0.0 | 2.6 | 0.00 | 0.00 | 0.00 | 100 | 1012.1 |
| 20260905052803 | 72 | 0 | 0.9 | 2.6 | 0.00 | 0.00 | 0.00 | 100 | 1012.0 |
| 20260905052306 | 72 | 166 | 0.0 | 2.6 | 0.00 | 0.00 | 0.00 | 100 | 1011.8 |
| 20260905051803 | 72 | 159 | 0.0 | 0.9 | 0.00 | 0.00 | 0.00 | 100 | 1011.8 |
| 20260905051303 | 72 | 151 | 0.0 | 1.7 | 0.00 | 0.00 | 0.00 | 100 | 1011.8 |
| 20260905050303 | 73 | 129 | 0.0 | 2.6 | 0.00 | 0.00 | 0.00 | 100 | 1011.6 |
| 20260905045803 | 73 | 151 | 0.0 | 2.6 | 0.00 | 0.00 | 0.00 | 100 | 1011.7 |
| 20260905045305 | 73 | 144 | 0.0 | 0.0 | 0.00 | 0.00 | 0.00 | 100 | 1011.7 |
| 20260905044803 | 73 | 0 | 0.0 | 1.7 | 0.00 | 0.00 | 0.00 | 100 | 1011.7 |
| 20260905044303 | 73 | 0 | 0.0 | 2.6 | 0.00 | 0.00 | 0.00 | 100 | 1011.8 |
| 20260905043803 | 74 | 0 | 0.9 | 2.6 | 0.00 | 0.00 | 0.00 | 100 | 1011.8 |
| 20260905042307 | 74 | 0 | 0.9 | 1.7 | 0.00 | 0.00 | 0.00 | 100 | 1011.8 |
| 20260905041803 | 75 | 0 | 0.0 | 2.6 | 0.00 | 0.00 | 0.00 | 100 | 1011.8 |
| 20260905041303 | 75 | 352 | 0.9 | 2.6 | 0.00 | 0.00 | 0.00 | 100 | 1011.7 |
| 20260905040803 | 75 | 341 | 0.9 | 2.6 | 0.00 | 0.00 | 0.00 | 100 | 1011.7 |
| 20260905040303 | 75 | 10 | 0.0 | 2.6 | 0.00 | 0.00 | 0.00 | 100 | 1011.7 |
| 20260905035803 | 76 | 29 | 0.0 | 2.6 | 0.00 | 0.00 | 0.00 | 98 | 1011.6 |
| 20260905034803 | 76 | 336 | 0.0 | 1.7 | 0.00 | 0.00 | 0.00 | 98 | 1011.6 |
| 20260905034303 | 76 | 335 | 1.7 | 2.6 | 0.00 | 0.00 | 0.00 | 98 | 1011.6 |
| 20260905033803 | 76 | 9 | 0.9 | 2.6 | 0.00 | 0.00 | 0.00 | 98 | 1011.6 |
| 20260905032306 | 76 | 355 | 0.9 | 2.6 | 0.00 | 0.00 | 0.00 | 98 | 1011.7 |
| 20260905031803 | 76 | 82 | 0.0 | 1.7 | 0.00 | 0.00 | 0.00 | 98 | 1011.7 |
| 20260905031303 | 77 | 82 | 0.0 | 0.0 | 0.00 | 0.00 | 0.00 | 98 | 1011.7 |
| 20260905030803 | 77 | 81 | 0.0 | 0.0 | 0.00 | 0.00 | 0.00 | 98 | 1011.7 |
| 20260905030303 | 77 | 81 | 0.0 | 0.0 | 0.00 | 0.00 | 0.00 | 98 | 1011.8 |
| 20260905025803 | 77 | 81 | 0.0 | 0.0 | 0.00 | 0.00 | 0.00 | 99 | 1011.7 |
| 20260905025306 | 78 | 81 | 0.0 | 0.0 | 0.00 | 0.00 | 0.00 | 99 | 1011.7 |
| 20260905023803 | 78 | 81 | 0.0 | 0.0 | 0.00 | 0.00 | 0.00 | 99 | 1011.6 |
| 20260905023303 | 78 | 81 | 0.0 | 0.0 | 0.00 | 0.00 | 0.00 | 99 | 1011.5 |
| 20260905022803 | 78 | 81 | 0.0 | 0.0 | 0.00 | 0.00 | 0.00 | 99 | 1011.5 |
| 20260905022306 | 78 | 81 | 0.0 | 0.0 | 0.00 | 0.00 | 0.00 | 99 | 1011.4 |
| 20260905021303 | 78 | 81 | 0.9 | 2.6 | 0.00 | 0.00 | 0.00 | 99 | 1011.3 |
| 20260905020803 | 78 | 81 | 0.0 | 2.6 | 0.00 | 0.00 | 0.00 | 99 | 1011.2 |
| 20260905020304 | 78 | 81 | 0.9 | 2.6 | 0.00 | 0.00 | 0.00 | 99 | 1011.2 |
| 20260905015804 | 78 | 23 | 0.9 | 2.6 | 0.00 | 0.00 | 0.00 | 100 | 1011.1 |
| 20260905014804 | 78 | 335 | 0.0 | 1.7 | 0.00 | 0.00 | 0.00 | 100 | 1010.8 |
| 20260905013803 | 79 | 335 | 0.0 | 1.7 | 0.00 | 0.00 | 0.00 | 100 | 1010.7 |
| 20260905013304 | 79 | 335 | 0.9 | 1.7 | 0.00 | 0.00 | 0.00 | 100 | 1010.6 |
| 20260905012803 | 80 | 335 | 0.0 | 0.0 | 0.00 | 0.00 | 0.00 | 100 | 1010.4 |
| 20260905012306 | 80 | 335 | 0.0 | 0.0 | 0.00 | 0.00 | 0.00 | 100 | 1010.4 |
| 20260905011803 | 81 | 335 | 0.0 | 0.9 | 0.00 | 0.00 | 0.00 | 100 | 1010.3 |
| 20260905011303 | 81 | 335 | 0.9 | 2.6 | 0.00 | 0.00 | 0.00 | 100 | 1010.2 |
| 20260905010804 | 81 | 347 | 0.9 | 2.6 | 0.00 | 0.00 | 0.00 | 100 | 1010.1 |
| 20260905010304 | 81 | 313 | 0.9 | 1.7 | 0.00 | 0.00 | 0.00 | 98 | 1010.1 |
| 20260905005804 | 81 | 313 | 0.0 | 0.0 | 0.00 | 0.00 | 0.00 | 89 | 1010.1 |
| 20260905005306 | 81 | 313 | 0.0 | 0.0 | 0.00 | 0.00 | 0.00 | 89 | 1010.0 |
| 20260905004804 | 81 | 313 | 0.0 | 0.0 | 0.00 | 0.00 | 0.00 | 89 | 1010.0 |
| 20260905003803 | 83 | 313 | 0.0 | 1.7 | 0.00 | 0.00 | 0.00 | 89 | 1009.9 |
| 20260905003304 | 83 | 313 | 0.0 | 2.6 | 0.00 | 0.00 | 0.00 | 89 | 1009.8 |
| 20260905002803 | 84 | 22 | 0.9 | 2.6 | 0.00 | 0.00 | 0.00 | 89 | 1009.8 |
| 20260905002306 | 84 | 17 | 0.0 | 2.6 | 0.00 | 0.00 | 0.00 | 89 | 1009.8 |
| 20260905001804 | 84 | 345 | 0.9 | 2.6 | 0.00 | 0.00 | 0.00 | 89 | 1009.8 |
| 20260905001303 | 85 | 330 | 0.9 | 5.2 | 0.00 | 0.00 | 0.00 | 89 | 1009.7 |
| 20260905000803 | 85 | 9 | 1.7 | 7.0 | 0.00 | 0.00 | 0.00 | 89 | 1009.7 |
| 20260904235804 | 85 | 337 | 1.7 | 7.0 | 0.00 | 0.00 | 0.00 | 77 | 1009.7 |
| 20260904235306 | 86 | 347 | 1.7 | 5.2 | 0.00 | 0.00 | 0.00 | 77 | 1009.6 |
| 20260904234803 | 86 | 343 | 2.6 | 7.0 | 0.00 | 0.00 | 0.00 | 77 | 1009.6 |
| 20260904234303 | 86 | 336 | 2.6 | 5.2 | 0.00 | 0.00 | 0.00 | 77 | 1009.6 |
| 20260904233804 | 86 | 342 | 2.6 | 6.1 | 0.00 | 0.00 | 0.00 | 77 | 1009.6 |
| 20260904233303 | 87 | 309 | 2.6 | 7.0 | 0.00 | 0.00 | 0.00 | 77 | 1009.6 |
| 20260904231304 | 88 | 3 | 4.3 | 8.7 | 0.00 | 0.00 | 0.00 | 77 | 1009.4 |
| 20260904230304 | 88 | 343 | 3.5 | 7.8 | 0.00 | 0.00 | 0.00 | 77 | 1009.2 |
| 20260904225803 | 89 | 356 | 5.2 | 10.4 | 0.00 | 0.00 | 0.00 | 74 | 1009.2 |
| 20260904225305 | 89 | 321 | 5.2 | 10.4 | 0.00 | 0.00 | 0.00 | 74 | 1009.1 |
| 20260904224804 | 89 | 338 | 6.1 | 10.4 | 0.00 | 0.00 | 0.00 | 74 | 1009.1 |
| 20260904224304 | 90 | 338 | 2.6 | 8.7 | 0.00 | 0.00 | 0.00 | 74 | 1009.1 |
| 20260904223803 | 90 | 335 | 4.3 | 7.8 | 0.00 | 0.00 | 0.00 | 74 | 1009.0 |
| 20260904223304 | 91 | 7 | 4.3 | 7.8 | 0.00 | 0.00 | 0.00 | 74 | 1008.9 |
| 20260904222803 | 91 | 357 | 5.2 | 10.4 | 0.00 | 0.00 | 0.00 | 74 | 1008.9 |
| 20260904221304 | 92 | 238 | 0.9 | 4.3 | 0.00 | 0.00 | 0.00 | 74 | 1008.8 |
| 20260904220803 | 93 | 294 | 1.7 | 6.1 | 0.00 | 0.00 | 0.00 | 74 | 1008.7 |
| 20260904220303 | 93 | 266 | 2.6 | 7.8 | 0.00 | 0.00 | 0.00 | 74 | 1008.7 |
| 20260904215803 | 93 | 301 | 1.7 | 7.0 | 0.00 | 0.00 | 0.00 | 70 | 1008.6 |
| 20260904215305 | 93 | 277 | 3.5 | 7.0 | 0.00 | 0.00 | 0.00 | 70 | 1008.6 |
| 20260904214803 | 92 | 7 | 0.0 | 2.6 | 0.00 | 0.00 | 0.00 | 70 | 1008.6 |
| 20260904214303 | 93 | 352 | 1.7 | 4.3 | 0.00 | 0.00 | 0.00 | 70 | 1008.7 |
| 20260904213804 | 93 | 322 | 1.7 | 2.6 | 0.00 | 0.00 | 0.00 | 70 | 1008.7 |
| 20260904213303 | 93 | 324 | 3.5 | 6.1 | 0.00 | 0.00 | 0.00 | 70 | 1008.7 |
| 20260904212804 | 93 | 316 | 4.3 | 7.8 | 0.00 | 0.00 | 0.00 | 70 | 1008.6 |
| 20260904212306 | 93 | 340 | 2.6 | 7.0 | 0.00 | 0.00 | 0.00 | 70 | 1008.6 |
| 20260904211804 | 93 | 298 | 1.7 | 5.2 | 0.00 | 0.00 | 0.00 | 70 | 1008.6 |
| 20260904211304 | 93 | 322 | 1.7 | 2.6 | 0.00 | 0.00 | 0.00 | 70 | 1008.6 |
| 20260904210803 | 93 | 309 | 2.6 | 5.2 | 0.00 | 0.00 | 0.00 | 70 | 1008.5 |
| 20260904210303 | 93 | 323 | 0.9 | 7.8 | 0.00 | 0.00 | 0.00 | 70 | 1008.5 |
| 20260904205305 | 92 | 229 | 0.0 | 1.7 | 0.00 | 0.00 | 0.00 | 67 | 1008.5 |
| 20260904204804 | 93 | 319 | 1.7 | 4.3 | 0.00 | 0.00 | 0.00 | 67 | 1008.5 |
| 20260904204303 | 92 | 305 | 0.9 | 1.7 | 0.00 | 0.00 | 0.00 | 67 | 1008.6 |
| 20260904203304 | 93 | 112 | 1.7 | 4.3 | 0.00 | 0.00 | 0.00 | 67 | 1008.6 |
| 20260904201804 | 92 | 30 | 1.7 | 4.3 | 0.00 | 0.00 | 0.00 | 67 | 1008.7 |
| 20260904201303 | 92 | 59 | 0.0 | 2.6 | 0.00 | 0.00 | 0.00 | 67 | 1008.6 |
| 20260904200803 | 93 | 42 | 0.9 | 2.6 | 0.00 | 0.00 | 0.00 | 67 | 1008.7 |
| 20260904200303 | 93 | 317 | 4.3 | 7.0 | 0.00 | 0.00 | 0.00 | 67 | 1008.6 |
| 20260904195803 | 92 | 77 | 3.5 | 5.2 | 0.00 | 0.00 | 0.00 | 74 | 1008.6 |
| 20260904195305 | 92 | 54 | 0.9 | 4.3 | 0.00 | 0.00 | 0.00 | 74 | 1008.7 |
| 20260904194303 | 92 | 337 | 3.5 | 8.7 | 0.00 | 0.00 | 0.00 | 74 | 1008.7 |
| 20260904193804 | 92 | 300 | 1.7 | 5.2 | 0.00 | 0.00 | 0.00 | 74 | 1008.7 |
| 20260904193304 | 92 | 303 | 3.5 | 7.0 | 0.00 | 0.00 | 0.00 | 74 | 1008.7 |
| 20260904192803 | 92 | 29 | 1.7 | 4.3 | 0.00 | 0.00 | 0.00 | 74 | 1008.7 |
| 20260904192306 | 93 | 344 | 3.5 | 6.1 | 0.00 | 0.00 | 0.00 | 74 | 1008.7 |
| 20260904191803 | 93 | 357 | 0.9 | 6.1 | 0.00 | 0.00 | 0.00 | 74 | 1008.7 |
| 20260904191304 | 94 | 321 | 2.6 | 2.6 | 0.00 | 0.00 | 0.00 | 74 | 1008.8 |
| 20260904190803 | 92 | 339 | 0.9 | 4.3 | 0.00 | 0.00 | 0.00 | 74 | 1008.8 |
| 20260904190303 | 92 | 81 | 0.9 | 2.6 | 0.00 | 0.00 | 0.00 | 74 | 1008.9 |
| 20260904185804 | 92 | 33 | 2.6 | 4.3 | 0.00 | 0.00 | 0.00 | 77 | 1008.8 |
| 20260904185306 | 93 | 326 | 1.7 | 4.3 | 0.00 | 0.00 | 0.00 | 77 | 1008.8 |
| 20260904184804 | 93 | 121 | 0.9 | 1.7 | 0.00 | 0.00 | 0.00 | 77 | 1008.8 |
| 20260904184303 | 92 | 335 | 0.9 | 2.6 | 0.00 | 0.00 | 0.00 | 77 | 1008.8 |
| 20260904183803 | 92 | 177 | 1.7 | 4.3 | 0.00 | 0.00 | 0.00 | 77 | 1008.8 |
| 20260904182306 | 92 | 163 | 1.7 | 5.2 | 0.00 | 0.00 | 0.00 | 77 | 1008.8 |
| 20260904180804 | 91 | 24 | 1.7 | 6.1 | 0.00 | 0.00 | 0.00 | 77 | 1008.9 |
| 20260904180303 | 91 | 125 | 0.9 | 6.1 | 0.00 | 0.00 | 0.00 | 77 | 1008.8 |
| 20260904175803 | 91 | 130 | 1.7 | 4.3 | 0.00 | 0.00 | 0.00 | 77 | 1008.7 |
| 20260904175305 | 91 | 160 | 0.9 | 4.3 | 0.00 | 0.00 | 0.00 | 77 | 1008.7 |
| 20260904174303 | 91 | 172 | 1.7 | 6.1 | 0.00 | 0.00 | 0.00 | 77 | 1008.7 |
| 20260904172804 | 90 | 227 | 1.7 | 4.3 | 0.00 | 0.00 | 0.00 | 77 | 1008.7 |
| 20260904171803 | 89 | 121 | 2.6 | 5.2 | 0.00 | 0.00 | 0.00 | 77 | 1008.7 |
| 20260904171303 | 89 | 141 | 2.6 | 5.2 | 0.00 | 0.00 | 0.00 | 77 | 1008.7 |
| 20260904170803 | 89 | 119 | 2.6 | 7.0 | 0.00 | 0.00 | 0.00 | 77 | 1008.7 |
| 20260904170303 | 89 | 164 | 2.6 | 4.3 | 0.00 | 0.00 | 0.00 | 77 | 1008.7 |
| 20260904165305 | 89 | 100 | 1.7 | 6.1 | 0.00 | 0.00 | 0.00 | 73 | 1008.7 |
| 20260904164804 | 88 | 127 | 1.7 | 4.3 | 0.00 | 0.00 | 0.00 | 73 | 1008.7 |
| 20260904164304 | 88 | 124 | 2.6 | 5.2 | 0.00 | 0.00 | 0.00 | 73 | 1008.7 |
| 20260904163803 | 88 | 132 | 0.9 | 4.3 | 0.00 | 0.00 | 0.00 | 73 | 1008.7 |
| 20260904163303 | 88 | 101 | 3.5 | 6.1 | 0.00 | 0.00 | 0.00 | 73 | 1008.7 |
| 20260904162803 | 88 | 200 | 1.7 | 4.3 | 0.00 | 0.00 | 0.00 | 73 | 1008.8 |
| 20260904162306 | 87 | 142 | 1.7 | 2.6 | 0.00 | 0.00 | 0.00 | 73 | 1008.8 |
| 20260904161804 | 88 | 170 | 0.9 | 5.2 | 0.00 | 0.00 | 0.00 | 73 | 1008.8 |
| 20260904161304 | 87 | 91 | 1.7 | 2.6 | 0.00 | 0.00 | 0.00 | 73 | 1008.8 |
| 20260904160803 | 87 | 136 | 0.0 | 0.0 | 0.00 | 0.00 | 0.00 | 73 | 1008.8 |
| 20260904155803 | 86 | 107 | 1.7 | 5.2 | 0.00 | 0.00 | 0.00 | 80 | 1008.7 |
| 20260904155306 | 85 | 17 | 1.7 | 6.1 | 0.00 | 0.00 | 0.00 | 80 | 1008.7 |
| 20260904154803 | 85 | 58 | 0.9 | 2.6 | 0.00 | 0.00 | 0.00 | 80 | 1008.7 |
| 20260904154304 | 85 | 143 | 1.7 | 2.6 | 0.00 | 0.00 | 0.00 | 80 | 1008.8 |
| 20260904153803 | 85 | 90 | 0.9 | 2.6 | 0.00 | 0.00 | 0.00 | 80 | 1008.8 |
| 20260904153303 | 86 | 90 | 1.7 | 2.6 | 0.00 | 0.00 | 0.00 | 80 | 1008.8 |
| 20260904152803 | 84 | 252 | 0.0 | 1.7 | 0.00 | 0.00 | 0.00 | 80 | 1008.7 |
| 20260904152306 | 84 | 248 | 0.0 | 0.9 | 0.00 | 0.00 | 0.00 | 80 | 1008.8 |
| 20260904151804 | 83 | 213 | 0.0 | 2.6 | 0.00 | 0.00 | 0.00 | 80 | 1009.0 |
| 20260904151303 | 83 | 211 | 1.7 | 4.3 | 0.00 | 0.00 | 0.00 | 80 | 1009.0 |
| 20260904145803 | 83 | 0 | 0.9 | 4.3 | 0.00 | 0.00 | 0.00 | 86 | 1008.9 |
| 20260904145305 | 83 | 344 | 2.6 | 2.6 | 0.00 | 0.00 | 0.00 | 86 | 1008.9 |
| 20260904144303 | 82 | 220 | 1.7 | 2.6 | 0.00 | 0.00 | 0.00 | 86 | 1008.9 |
| 20260904143803 | 82 | 290 | 0.9 | 2.6 | 0.00 | 0.00 | 0.00 | 86 | 1008.8 |
| 20260904143303 | 82 | 329 | 0.9 | 2.6 | 0.00 | 0.00 | 0.00 | 86 | 1008.7 |
| 20260904142804 | 81 | 272 | 1.7 | 7.0 | 0.00 | 0.00 | 0.00 | 86 | 1008.7 |
| 20260904142306 | 81 | 270 | 1.7 | 2.6 | 0.00 | 0.00 | 0.00 | 86 | 1008.7 |
| 20260904141803 | 81 | 272 | 0.9 | 5.2 | 0.00 | 0.00 | 0.00 | 86 | 1008.7 |
| 20260904141304 | 80 | 248 | 0.9 | 2.6 | 0.00 | 0.00 | 0.00 | 86 | 1008.7 |